Dalhart Municipal Airport Dalhart US
ICAO: KDHT
IATA: DHT
Category: Medium
Scheduled Services: No

Elevation: 3991 ft
TransAlt. 18000 ft.

Airport Communications:
ASOS:134.075
ALBUQUERQUE CNTR:127.85
FORT WORTH RDO:122.2
CTAF/UNICOM:122.95

KDHT Zoom In..

If you have problems with the map follow the link
https://www.worldairports.se/pages/airport.php?
ICAO=KDHT

Runways:

(A) RW 03 length 5440 ft width 75 ft
---- / hdg 36

(B) RW 17 length 6400 ft width 75 ft
---- / hdg 171

(C) RW 21 length 5440 ft width 75 ft
---- / hdg 216

(D) RW 35 length 6400 ft width 75 ft
---- / hdg 351

Location; KDHT
Day. 16 / Time. 02.53 Zulu
* Altimeter: 30.15
* Temperature: 06° c. 42.8°f.
* Wind from: 000° Speed 00 kn.
Dewpoint: -02° c.
Visibility: 10 Statute Miles.
Clouds: Clear (automated report).

KDHT 160253Z AUTO 00000KT 10SM CLR 06/M02 A3015 RMK AO2 SLP203 T00611017 51013


Wind - Calm.

 
 
jpsmedia.com for Web Design worldairports.se 2018   terms of use